Regional Weather Roundup
Issued by NWS Green Bay, WI

Home | Current Version | Previous Version | Graphics & Text | Print | Product List | Glossary Off
Versions: 1 2 3 4 5 6 7 8 9 10 11 12 13 14 15 16 17 18 19 20 21 22 23 24 25 26 27 28 29 30 31 32 33 34 35 36 37 38 39 40 41 42 43 44 45 46 47 48 49 50

000
ASUS43 KGRB 271400
RWRGRB

NORTH-CENTRAL AND NORTHEAST WISCONSIN REGIONAL WEATHER ROUNDUP
NATIONAL WEATHER SERVICE GREEN BAY WI
900 AM CDT WED JUL 27 2016

WIZ005-009-010>012-018-019-271500-
NORTH CENTRAL WISCONSIN

CITY           SKY/WX    TMP DP  RH WIND       PRES   REMARKS
IRONWOOD       CLOUDY    68  64  88 W6        30.00S
MANITOWISH WTR NOT AVBL
ARBOR VITAE    NOT AVBL
EAGLE RIVER    NOT AVBL
LAND O LAKES   NOT AVBL
RHINELANDER    LGT RAIN  65  62  90 W5        30.06R
PHILLIPS       NOT AVBL
ANTIGO         NOT AVBL
TOMAHAWK       NOT AVBL
MERRILL        NOT AVBL
$$

WIZ013-073-271500-
NORTHEAST WISCONSIN

CITY           SKY/WX    TMP DP  RH WIND       PRES   REMARKS
IRON MOUNTAIN  CLOUDY    68  61  78 NW3       30.00S
MARINETTE      SUNNY    N/A N/A N/A NW6       30.00R
$$

WIZ017-030-035>037-045-271500-
CENTRAL WISCONSIN

CITY           SKY/WX    TMP DP  RH WIND       PRES   REMARKS
MEDFORD        NOT AVBL
WAUSAU         PTSUNNY   73  64  73 N7        30.03R
MOSINEE        MOSUNNY   73  70  88 CALM      30.03F
MARSHFIELD     MOSUNNY   78  69  73 W9        30.01S
WISC RAPIDS    LGT RAIN  77  67  71 CALM      30.02F
STEVENS POINT  NOT AVBL
WAUPACA        NOT AVBL
SHAWANO        NOT AVBL
CLINTONVILLE   NOT AVBL
WAUTOMA        MOSUNNY   77  70  79 VRB3      30.01S
$$

WIZ038-039-048-051-271500-
FOX VALLEY

CITY           SKY/WX    TMP DP  RH WIND       PRES   REMARKS
NWS GREEN BAY  SUNNY     77  68  73 SW6       29.99S
APPLETON       PTSUNNY   72  63  73 S7        29.99S
OSHKOSH        PTSUNNY   78  67  68 W5        30.01R
FOND DU LAC    SUNNY     78  70  76 SW6       30.00F
$$

WIZ022-050-052-271500-
EAST CENTRAL WISCONSIN

CITY           SKY/WX    TMP DP  RH WIND       PRES   REMARKS
EPHRAIM        NOT AVBL
WASHINGTON ISL NOT AVBL
STURGEON BAY   SUNNY     76  68  76 W6        30.00R
MANITOWOC      NOT AVBL
SHEBOYGAN      SUNNY     80  66  62 CALM      29.99S
$$

LMZ563-521-522-541>543-271500-
LAKESHORE

STATION/POSITION TIME  TEMP    WIND        PRES    VSBY  WAVE
                       AIR SEA DIR/SP/G                  HT/PER
                 (UTC) (F)     (DEG/KT/KT) (MB)    (MI)  (FT/S)
SHEBOYGAN LKSHOR 1300   76     350/  2/  2 1015.5F
KEWAUNEE LKSHORE 1300   65     180/  5/  6 1014.6F
ALGOMA MARINA    1313           CALM  /  6   N/A
NORTHPORT PIER   1300   73      CALM  /  2 1014.6
N MID LAKE BUOY  1250   70 69  210/  4/  4 1013.8R         1/ 4
S GREEN BAY BUOY 1330   73 74  300/  6/  8   N/A
SISTER BAY LKSHO 1321   81        CALM       N/A
CHAMBERS ISLAND  1300   72     250/  6/  7 1014.9R
MENOMINEE LKSHOR 1300   73     290/  5/  7 1014.5R
$$




USA.gov is the U.S. government's official web portal to all federal, state and local government web resources and services.